カタログに戻る

YZ-1 R/B

運用中MEO
NORAD 43109·ROCKET BODY·🇨🇳 China

打ち上げ Jan 11, 2018 から Xichang Satellite Launch Center

Loading…

次のパス (今後24時間)

TLE

最新Source: Space-Track

元期: Sep 12, 2026, 18:50 UTC

1 43109U 18003C   26255.78473636 -.00000064  00000-0  00000-0 0  9994
2 43109  54.5423 309.4918 0125415  44.4838 316.5878  1.78158426 56422

AllMySatでYZ-1 R/Bをリアルタイム追跡

Download on the App Store